TimeAKST,TemperatureF,Dew PointF,Humidity,Sea Level PressureIn,VisibilityMPH,Wind Direction,Wind SpeedMPH,Gust SpeedMPH,PrecipitationIn,Events,Conditions,WindDirDegrees,DateUTC
12:56 AM,-26.9,-33.9,69,30.49,10.0,Calm,Calm,-,N/A,,Clear,0,2013-02-17 09:56:00
1:56 AM,-26.9,-33.9,69,30.49,10.0,Calm,Calm,-,N/A,,Clear,0,2013-02-17 10:56:00
2:56 AM,-27.9,-35.0,69,30.50,10.0,Calm,Calm,-,N/A,,Clear,0,2013-02-17 11:56:00
3:56 AM,-28.8,-35.9,69,30.50,10.0,Calm,Calm,-,N/A,,Clear,0,2013-02-17 12:56:00
4:56 AM,-29.9,-9999,N/A,30.50,10.0,Calm,Calm,-,N/A,,Clear,0,2013-02-17 13:56:00
5:56 AM,-31.0,-9999,N/A,30.51,10.0,Calm,Calm,-,N/A,,Clear,0,2013-02-17 14:56:00
6:56 AM,-29.9,-9999,N/A,30.52,10.0,Calm,Calm,-,N/A,,Clear,0,2013-02-17 15:56:00
7:56 AM,-31.9,-9999,N/A,30.53,10.0,Calm,Calm,-,N/A,,Clear,0,2013-02-17 16:56:00
8:56 AM,-31.9,-9999,N/A,30.53,10.0,Calm,Calm,-,N/A,,Clear,0,2013-02-17 17:56:00
9:56 AM,-33.0,-9999,N/A,30.54,10.0,Calm,Calm,-,N/A,,Clear,0,2013-02-17 18:56:00
10:56 AM,-33.0,-9999,N/A,30.55,10.0,Calm,Calm,-,N/A,,Clear,0,2013-02-17 19:56:00
11:56 AM,-31.9,-9999,N/A,30.57,10.0,Calm,Calm,-,N/A,,Clear,0,2013-02-17 20:56:00
12:56 PM,-28.8,-35.9,69,30.58,2.5,Calm,Calm,-,N/A,,Haze,0,2013-02-17 21:56:00
1:07 PM,-27.4,-34.6,69,30.56,5.0,Calm,Calm,-,N/A,,Haze,0,2013-02-17 22:07:00
1:19 PM,-27.4,-34.6,69,30.57,1.8,Calm,Calm,-,N/A,,Haze,0,2013-02-17 22:19:00
1:22 PM,-27.4,-34.6,69,30.57,1.0,Calm,Calm,-,N/A,,Haze,0,2013-02-17 22:22:00
1:28 PM,-27.4,-34.6,69,30.57,1.5,Calm,Calm,-,N/A,,Haze,0,2013-02-17 22:28:00
1:31 PM,-27.4,-34.6,69,30.57,4.0,Calm,Calm,-,N/A,,Haze,0,2013-02-17 22:31:00
1:36 PM,-27.4,-34.6,69,30.57,1.8,Calm,Calm,-,N/A,,Haze,0,2013-02-17 22:36:00
1:40 PM,-27.4,-34.6,69,30.57,1.0,Calm,Calm,-,N/A,,Haze,0,2013-02-17 22:40:00
1:46 PM,-27.4,-34.6,69,30.57,1.5,Calm,Calm,-,N/A,,Haze,0,2013-02-17 22:46:00
1:56 PM,-27.9,-35.0,69,30.59,1.8,Calm,Calm,-,N/A,,Haze,0,2013-02-17 22:56:00
2:04 PM,-29.2,-36.4,68,30.58,4.0,Calm,Calm,-,N/A,,Haze,0,2013-02-17 23:04:00
2:56 PM,-27.9,-35.0,69,30.60,10.0,Calm,Calm,-,N/A,,Clear,0,2013-02-17 23:56:00
3:56 PM,-27.9,-33.9,73,30.61,10.0,Calm,Calm,-,N/A,,Clear,0,2013-02-18 00:56:00
4:56 PM,-27.9,-35.0,69,30.61,10.0,Calm,Calm,-,N/A,,Clear,0,2013-02-18 01:56:00
5:56 PM,-31.9,-9999,N/A,30.62,10.0,Calm,Calm,-,N/A,,Clear,0,2013-02-18 02:56:00
6:56 PM,-33.0,-9999,N/A,30.64,10.0,Calm,Calm,-,N/A,,Clear,0,2013-02-18 03:56:00
7:40 PM,-32.8,-9999,N/A,30.64,10.0,Calm,Calm,-,N/A,,Partly Cloudy,0,2013-02-18 04:40:00
7:56 PM,-31.9,-9999,N/A,30.66,10.0,Calm,Calm,-,N/A,,Partly Cloudy,0,2013-02-18 04:56:00
8:56 PM,-33.9,-9999,N/A,30.66,10.0,Calm,Calm,-,N/A,,Clear,0,2013-02-18 05:56:00
9:56 PM,-35.0,-9999,N/A,30.66,10.0,Calm,Calm,-,N/A,,Clear,0,2013-02-18 06:56:00
10:56 PM,-35.9,-9999,N/A,30.67,10.0,Calm,Calm,-,N/A,,Clear,0,2013-02-18 07:56:00
11:56 PM,-36.9,-9999,N/A,30.67,10.0,Calm,Calm,-,N/A,,Clear,0,2013-02-18 08:56:00